Regional Weather Roundup
Issued by NWS

Home | Current Version | Previous Version | Text Only | Print | Product List | Glossary On
Versions: 1 2 3 4 5 6 7 8 9 10 11 12 13 14 15 16 17 18 19 20 21 22 23 24 25 26 27 28 29 30 31 32 33 34 35 36 37 38 39 40 41 42 43 44 45 46 47 48 49 50
000
ASUS43 KMKX 210600
RWRWI

WISCONSIN REGIONAL WEATHER ROUNDUP
NATIONAL WEATHER SERVICE MILWAUKEE/SULLIVAN WI
1200 AM CST SUN DEC 21 2014

NOTE: "FAIR" INDICATES FEW OR NO CLOUDS BELOW 12,000 FEET WITH NO
SIGNIFICANT WEATHER AND/OR OBSTRUCTIONS TO VISIBILITY.

WIZ001-002-006>008-014>016-023>028-210700-
NORTHWEST WISCONSIN

CITY           SKY/WX    TMP DP  RH WIND       PRES   REMARKS
SUPERIOR ARPT  CLOUDY    32  28  84 S10       30.06F WCI  24
ASHLAND        CLOUDY    32  26  78 S12       30.09F WCI  23
6HR MIN TEMP:  31; 6HR MAX TEMP:  32;

HAYWARD        CLOUDY    30  25  81 S9        30.07F WCI  22
6HR MIN TEMP:  30; 6HR MAX TEMP:  30;

SIREN          CLOUDY    31  27  84 S8        30.08S WCI  24
CUMBERLAND     CLOUDY    30  28  93 S9G17     30.08F FOG     WCI  22
RICE LAKE      CLOUDY    31  29  92 SE9       30.11F FOG     WCI  22
CHETEK         CLOUDY    30  28  92 SE8       30.10F FOG     WCI  23
LADYSMITH      CLOUDY    31  28  92 S6        30.13F FOG     WCI  25
EAU CLAIRE     CLOUDY    31  27  85 S9        30.11F FOG     WCI  23
6HR MIN TEMP:  30; 6HR MAX TEMP:  31;

MENOMONIE      CLOUDY    31  30  95 SE7       30.11F FOG     WCI  24
NEW RICHMOND   CLOUDY    31  29  92 S8        30.09F WCI  24
OSCEOLA        CLOUDY    32  28  87 S8        30.11F WCI  25
$$

WIZ003>005-009-010-017-018-210700-
NORTH CENTRAL WISCONSIN

CITY           SKY/WX    TMP DP  RH WIND       PRES   REMARKS
MANITOWISH WTR CLOUDY    27  27  99 S7        30.09F FOG     WCI  19
ARBOR VITAE    CLOUDY    29  27  92 S9        30.10S FOG     WCI  21
WOODRUFF       CLOUDY    29  27  92 S9        30.10S FOG     WCI  21
RHINELANDER    CLOUDY    26  24  92 S5        30.11F FOG     WCI  20
6HR MIN TEMP:  26; 6HR MAX TEMP:  27;

EAGLE RIVER    CLOUDY    27  26  97 S5        30.10F WCI  22
LAND O LAKES   CLOUDY    28  26  93 S5        30.11S WCI  23
PHILLIPS       CLOUDY    28  26  93 S7        30.10S FOG     WCI  21
TOMAHAWK       CLOUDY    27  25  91 CALM      30.12F FOG
MEDFORD        CLOUDY    28  26  95 S9        30.11F FOG     WCI  19
MERRILL        CLOUDY    28  26  93 CALM      30.13F FOG
$$

WIZ029-030-035-036-043>047-210700-
CENTRAL WISCONSIN

CITY           SKY/WX    TMP DP  RH WIND       PRES   REMARKS
WAUSAU         CLOUDY    28  25  88 S5        30.13F WCI  23
6HR MIN TEMP:  28; 6HR MAX TEMP:  29;

MOSINEE        CLOUDY    28  28 100 S5        30.15F WCI  23
MARSHFIELD     CLOUDY    29  26  89 S6        30.13F FOG     WCI  23
6HR MIN TEMP:  29; 6HR MAX TEMP:  30;

STEVENS POINT  CLOUDY    27  25  92 SE3       30.16F FOG
WAUPACA        CLOUDY    30  28  90 SE3       30.19F FOG
WAUTOMA        NOT AVBL
WISC RAPIDS    CLOUDY    29  25  85 S5        30.17S WCI  24
6HR MIN TEMP:  29; 6HR MAX TEMP:  30;

CAMP DOUGLAS   MIX PCPN  30  30 100 SE5       30.16S WCI  25
$$

WIZ011>013-019>022-031-037>040-048>050-210700-
NORTHEAST WISCONSIN

CITY           SKY/WX    TMP DP  RH WIND       PRES   REMARKS
ANTIGO         CLOUDY    25  25  98 S7        30.14S FOG     WCI  17
SHAWANO        CLOUDY    30  26  86 CALM      30.20S FOG
OCONTO         CLOUDY    28  27  94 CALM      30.20F
STURGEON BAY   CLOUDY    28  25  86 CALM      30.22S
6HR MIN TEMP:  25; 6HR MAX TEMP:  28;

GREEN BAY      CLOUDY    29  27  92 S6        30.20F FOG     WCI  23
6HR MIN TEMP:  29; 6HR MAX TEMP:  30;

MANITOWOC      CLOUDY    30  28  93 CALM      30.22S
APPLETON       CLOUDY    28  28 100 SE5       30.19F FOG     WCI  23
CLINTONVILLE   CLOUDY    30  27  86 S3        30.19F FOG
OSHKOSH        CLOUDY    29  26  89 S6        30.19F FOG     WCI  23
6HR MIN TEMP:  24; 6HR MAX TEMP:  29;

$$

WIZ032>034-041-042-053>061-210700-
SOUTHWEST WISCONSIN

CITY           SKY/WX    TMP DP  RH WIND       PRES   REMARKS
LA CROSSE      CLOUDY    33  28  81 SE8       30.14F HAZE    WCI  26
6HR MIN TEMP:  33; 6HR MAX TEMP:  33; 6HR PCP: TRACE;

SPARTA         CLOUDY    31  27  86 S6        30.16F FOG     WCI  25
VIROQUA        CLOUDY    29  29 100 S7        30.13F WCI  22
BOSCOBEL       CLOUDY    32  28  85 CALM      30.17F FOG
6HR MIN TEMP:  32; 6HR MAX TEMP:  33; 6HR PCP: TRACE;

PRAIRIE DU CHI CLOUDY    32  29  90 E6        30.16F FOG     WCI  26
PLATTEVILLE    CLOUDY    31  30  95 CALM      30.17S
$$

WIZ056-057-062-063-064-067-068-210700-
SOUTH CENTRAL WISCONSIN

CITY           SKY/WX    TMP DP  RH WIND       PRES   REMARKS
REEDSBURG      CLOUDY    29  26  88 S6        30.17S WCI  23
BARABOO/DELLS  CLOUDY    29  26  86 S8        30.16F FOG     WCI  21
LONE ROCK      NOT AVBL
MINERAL POINT  CLOUDY    32  30  93 SE6       30.15F FOG     WCI  26
MADISON        CLOUDY    30  26  85 S7        30.18F WCI  23
6HR MIN TEMP:  30; 6HR MAX TEMP:  31; 6HR PCP: TRACE;

MIDDLETON      CLOUDY    32  28  83 S3        30.19F
WATERTOWN      CLOUDY    30  28  94 S3        30.20S
MONROE         CLOUDY    30  30 100 S9        30.17F WCI  22
JANESVILLE     CLOUDY    32  28  86 S5        30.21S WCI  27
$$

WIZ051-052-058>065-066-070>072-210700-
SOUTHEAST WISCONSIN

CITY           SKY/WX    TMP DP  RH WIND       PRES   REMARKS
MILWAUKEE      CLOUDY    32  24  72 SW7       30.23S WCI  26
6HR MIN TEMP:  31; 6HR MAX TEMP:  32; 6HR PCP: TRACE;

WAUKESHA       CLOUDY    30  27  86 S6        30.22S WCI  24
MILWAUKEE/TIMM CLOUDY    32  27  80 S5        30.23S WCI  27
RACINE         CLOUDY    32  25  75 CALM      30.24F
6HR MIN TEMP:  31; 6HR MAX TEMP:  32;

BURLINGTON     CLOUDY    29  25  87 CALM      30.22S
KENOSHA        CLOUDY    32  26  78 S3        30.23S
6HR MIN TEMP:  31; 6HR MAX TEMP:  32;

FOND DU LAC    CLOUDY    30  26  85 S5        30.20S WCI  25
6HR MIN TEMP:  26; 6HR MAX TEMP:  30;

SHEBOYGAN      CLOUDY    30  25  81 CALM      30.21F
6HR MIN TEMP:  28; 6HR MAX TEMP:  30;

WEST BEND      CLOUDY    30  27  86 CALM      30.21S
JUNEAU         CLOUDY    29  26  89 S8        30.21S FOG     WCI  21
$$

LSZ147-162-210700-
LAKE SUPERIOR

STATION/POSITION TIME  TEMP    WIND        PRES    WAVE
                       AIR SEA DIR/SP/G            HT/PER
                 (UTC) (F)     (DEG/KT/KT) (MB)    (FT/S)
DEVILS ISLAND    0500   32     190/  8/ 12 1020.5S
PORT WING        0540   32     190/  7/ 11 1019.0F
SAXON HARBOR     0500   32     210/  2/  5 1019.6S
$$

LMZ867-665-643>646-210700-
LAKE MICHIGAN

STATION/POSITION TIME  TEMP    WIND        PRES    WAVE
                       AIR SEA DIR/SP/G            HT/PER
                 (UTC) (F)     (DEG/KT/KT) (MB)    (FT/S)
CHAMBERS ISLAND  0500   28        CALM     1023.0F
NORTHPORT PIER   0500   30     240/  2/  3 1023.0F
SISTER BAY       0443             CALM       N/A
ALGOMA LAKESHORE 0514             CALM       N/A
KEWAUNEE LAKESHO 0500   29     290/  1/  3 1022.3F
SHEBOYGAN LAKESH 0500   31 34  200/  5/  6 1024.5S
PORT WASHINGTON  0500   32     200/  2/  5 1024.4S
MILWAUKEE LAKESH 0500   32     220/  8/  9   N/A
KENOSHA   LAKESH 0500   32     190/  3/  5 1023.7F
$$

TC  - TEMPERATURE IN CELSIUS
VSB - VISIBILITY IN STATUTE MILES
WCI - WIND CHILL INDEX
HX  - HEAT INDEX




USA.gov is the U.S. government's official web portal to all federal, state and local government web resources and services.